Location: Burera
(21.3780°N, 81.9534°E)
Time: 23:25:21
(UTC+00:00)

Lacrosse 5 rocket - Pass Details

Date: 13 August 2020
Orbit: 464 x 632 km, 57.0° (Epoch: 22 September)

Event Time Altitude Azimuth Distance (km) Brightness Sun altitude
Exits shadow 21:46:37 26° 93° (E) 1,205 3.4 -31.4°
Drops below altitude 10° 21:49:26 10° 59° (ENE) 1,974 5.0 -30.8°
Sets 21:51:59 0° 48° (NE) 2,897 6.1 -30.3°
